Location: Drożyska Wielkie
(53.3958°N, 17.1483°E)
Time: 14:56:54
(UTC+02:00)

ISS - Visible Passes

Search period start: 22 September 2018 00:00
Search period end: 02 October 2018 00:00
Orbit: 403 x 408 km, 51.6° (Epoch: 22 September)

Date Brightness Start Highest point End Pass type
(mag) Time Alt. Az. Time Alt. Az. Time Alt. Az.
22 Sep -1.3 20:28:36 10° S 20:28:50 11° S 20:28:50 11° S visible
23 Sep -1.3 21:11:42 10° SW 21:12:17 14° SW 21:12:17 14° SW visible
24 Sep -2.5 20:20:12 10° SSW 20:22:49 24° SSE 20:22:49 24° SSE visible
25 Sep -2.0 19:28:58 10° S 19:31:14 17° SE 19:33:12 11° ESE visible
25 Sep -2.3 21:04:02 10° WSW 21:05:53 28° SW 21:05:53 28° SW visible
26 Sep -3.1 20:12:18 10° SW 20:15:23 38° SSE 20:16:08 32° SE visible
26 Sep -0.8 21:48:23 10° W 21:48:49 13° W 21:48:49 13° W visible
27 Sep -2.6 19:20:42 10° SW 19:23:34 28° SSE 19:26:17 11° E visible
27 Sep -3.0 20:56:29 10° WSW 20:58:57 44° SW 20:58:57 44° SW visible
28 Sep -3.6 20:04:38 10° WSW 20:07:51 52° SSE 20:09:02 32° ESE visible
28 Sep -1.0 21:40:56 10° W 21:41:42 16° W 21:41:42 16° W visible
29 Sep -3.2 19:12:48 10° SW 19:15:57 42° SSE 19:19:03 10° E visible
29 Sep -3.3 20:48:59 10° W 20:51:43 53° SW 20:51:43 53° SW visible
30 Sep -3.7 19:57:02 10° WSW 20:00:18 63° S 20:01:42 31° ESE visible
30 Sep -1.1 21:33:26 10° W 21:34:21 17° W 21:34:21 17° W visible
01 Oct -3.5 19:05:06 10° WSW 19:08:21 56° S 19:11:36 10° E visible
01 Oct -3.3 20:41:27 10° W 20:44:18 53° SW 20:44:18 53° SW visible
